• In Denmark
  • List of Countries
  • For 7 days
  • Water Temperature
  • Satellite Maps
  • Weather Map
  • Weather Widgets
  • user-avatar
    Login

    Hourly Weather Francistown

    Today, 19 August, Sunday

    Time Temperature Precipitation Wind Pressure Humidity
    00:00 +16°C° 0 mm 7 mps 681 mmHg 76%
    01:00 +15°C° 0 mm 6 mps 681 mmHg 76%
    02:00 +15°C° 0 mm 5 mps 680 mmHg 77%
    03:00 +15°C° 0 mm 5 mps 680 mmHg 77%
    04:00 +15°C° 0 mm 5 mps 680 mmHg 78%
    05:00 +14°C° 0 mm 5 mps 680 mmHg 79%
    06:00 +15°C° 0 mm 5 mps 680 mmHg 78%
    07:00 +15°C° 0 mm 5 mps 681 mmHg 77%
    08:00 +15°C° 0 mm 5 mps 681 mmHg 75%
    09:00 +17°C° 0 mm 5 mps 681 mmHg 65%
    10:00 +21°C° 0 mm 4 mps 681 mmHg 56%
    11:00 +23°C° 0 mm 4 mps 681 mmHg 46%
    12:00 +26°C° 0 mm 3 mps 681 mmHg 40%
    13:00 +28°C° 0 mm 2 mps 680 mmHg 34%
    14:00 +30°C° 0 mm 2 mps 680 mmHg 28%
    15:00 +30°C° 0 mm 2 mps 679 mmHg 27%
    16:00 +29°C° 0 mm 2 mps 679 mmHg 27%
    17:00 +29°C° 0 mm 2 mps 679 mmHg 26%
    18:00 +27°C° 0 mm 3 mps 679 mmHg 31%
    19:00 +25°C° 0 mm 3 mps 679 mmHg 36%
    20:00 +24°C° 0 mm 3 mps 679 mmHg 42%
    21:00 +22°C° 0 mm 3 mps 679 mmHg 45%
    22:00 +21°C° 0 mm 3 mps 679 mmHg 48%
    23:00 +20°C° 0 mm 3 mps 679 mmHg 51%

    Tomorrow, 20 August, Monday

    Time Temperature Precipitation Wind Pressure Humidity
    00:00 +19°C° 0 mm 3 mps 679 mmHg 53%
    01:00 +19°C° 0 mm 2 mps 679 mmHg 55%
    02:00 +18°C° 0 mm 2 mps 679 mmHg 58%
    03:00 +18°C° 0 mm 2 mps 679 mmHg 59%
    04:00 +18°C° 0 mm 2 mps 679 mmHg 60%
    05:00 +17°C° 0 mm 2 mps 678 mmHg 62%
    06:00 +19°C° 0 mm 2 mps 679 mmHg 57%
    07:00 +20°C° 0 mm 2 mps 679 mmHg 53%
    08:00 +21°C° 0 mm 3 mps 680 mmHg 48%
    09:00 +25°C° 0 mm 3 mps 680 mmHg 40%
    10:00 +27°C° 0 mm 3 mps 681 mmHg 32%
    11:00 +30°C° 0 mm 3 mps 681 mmHg 24%
    12:00 +31°C° 0 mm 2 mps 680 mmHg 20%
    13:00 +32°C° 0 mm 1 mps 680 mmHg 17%
    14:00 +34°C° 0 mm 1 mps 679 mmHg 13%
    15:00 +33°C° 0 mm 1 mps 679 mmHg 13%
    16:00 +33°C° 0 mm 1 mps 678 mmHg 13%
    17:00 +32°C° 0 mm 1 mps 678 mmHg 13%
    18:00 +30°C° 0 mm 2 mps 678 mmHg 15%
    19:00 +28°C° 0 mm 2 mps 678 mmHg 18%
    20:00 +26°C° 0 mm 2 mps 678 mmHg 20%
    21:00 +25°C° 0 mm 2 mps 678 mmHg 21%
    22:00 +25°C° 0 mm 2 mps 678 mmHg 23%
    23:00 +24°C° 0 mm 2 mps 679 mmHg 24%

    Day after tomorrow, 21 August, Tuesday

    Time Temperature Precipitation Wind Pressure Humidity
    00:00 +23°C° 0 mm 2 mps 678 mmHg 26%
    01:00 +23°C° 0 mm 2 mps 678 mmHg 27%
    02:00 +21°C° 0 mm 2 mps 678 mmHg 29%
    03:00 +21°C° 0 mm 2 mps 678 mmHg 30%
    04:00 +20°C° 0 mm 2 mps 677 mmHg 31%
    05:00 +20°C° 0 mm 3 mps 677 mmHg 33%
    06:00 +21°C° 0 mm 3 mps 678 mmHg 31%
    07:00 +22°C° 0 mm 4 mps 679 mmHg 29%
    08:00 +23°C° 0 mm 4 mps 679 mmHg 28%
    09:00 +27°C° 0 mm 4 mps 680 mmHg 24%
    10:00 +29°C° 0 mm 4 mps 680 mmHg 20%
    11:00 +33°C° 0 mm 3 mps 680 mmHg 17%
    12:00 +34°C° 0 mm 3 mps 680 mmHg 16%
    13:00 +34°C° 0 mm 3 mps 679 mmHg 14%
    14:00 +35°C° 0 mm 3 mps 678 mmHg 13%
    15:00 +35°C° 0 mm 2 mps 678 mmHg 13%
    16:00 +34°C° 0 mm 2 mps 678 mmHg 13%
    17:00 +34°C° 0 mm 2 mps 677 mmHg 13%
    18:00 +31°C° 0 mm 2 mps 677 mmHg 15%
    19:00 +29°C° 0 mm 2 mps 678 mmHg 17%
    20:00 +27°C° 0 mm 2 mps 678 mmHg 18%
    21:00 +26°C° 0 mm 3 mps 678 mmHg 19%
    22:00 +25°C° 0 mm 3 mps 678 mmHg 19%
    23:00 +25°C° 0 mm 4 mps 678 mmHg 20%

    22 August, Wednesday

    Time Temperature Precipitation Wind Pressure Humidity
    00:00 +23°C° 0 mm 4 mps 678 mmHg 21%
    01:00 +22°C° 0 mm 3 mps 678 mmHg 22%
    02:00 +21°C° 0 mm 3 mps 677 mmHg 23%
    03:00 +21°C° 0 mm 3 mps 677 mmHg 24%
    04:00 +20°C° 0 mm 3 mps 677 mmHg 25%
    05:00 +20°C° 0 mm 3 mps 677 mmHg 26%
    06:00 +20°C° 0 mm 4 mps 678 mmHg 28%
    07:00 +21°C° 0 mm 5 mps 678 mmHg 30%
    08:00 +21°C° 0 mm 6 mps 679 mmHg 32%
    09:00 +24°C° 0 mm 6 mps 679 mmHg 29%
    10:00 +27°C° 0 mm 5 mps 679 mmHg 25%
    11:00 +30°C° 0 mm 5 mps 680 mmHg 21%
    12:00 +32°C° 0 mm 4 mps 679 mmHg 18%
    13:00 +34°C° 0 mm 4 mps 678 mmHg 14%
    14:00 +35°C° 0 mm 3 mps 677 mmHg 11%
    15:00 +35°C° 0 mm 3 mps 677 mmHg 11%
    16:00 +35°C° 0 mm 2 mps 677 mmHg 11%
    17:00 +35°C° 0 mm 2 mps 677 mmHg 11%
    18:00 +31°C° 0 mm 2 mps 677 mmHg 14%
    19:00 +29°C° 0 mm 2 mps 677 mmHg 17%
    20:00 +27°C° 0 mm 3 mps 677 mmHg 20%
    21:00 +26°C° 0 mm 3 mps 677 mmHg 23%
    22:00 +25°C° 0 mm 3 mps 677 mmHg 26%
    23:00 +23°C° 0 mm 4 mps 677 mmHg 30%

    23 August, Thursday

    Time Temperature Precipitation Wind Pressure Humidity
    00:00 +22°C° 0 mm 3 mps 676 mmHg 31%
    01:00 +22°C° 0 mm 3 mps 676 mmHg 32%
    02:00 +21°C° 0 mm 3 mps 675 mmHg 32%
    03:00 +21°C° 0 mm 3 mps 675 mmHg 33%
    04:00 +21°C° 0 mm 4 mps 675 mmHg 34%
    05:00 +20°C° 0 mm 4 mps 675 mmHg 34%
    06:00 +22°C° 0 mm 5 mps 676 mmHg 31%
    07:00 +23°C° 0 mm 5 mps 677 mmHg 29%
    08:00 +24°C° 0 mm 6 mps 677 mmHg 26%
    09:00 +28°C° 0 mm 5 mps 677 mmHg 22%
    10:00 +32°C° 0 mm 5 mps 678 mmHg 17%
    11:00 +35°C° 0 mm 4 mps 678 mmHg 13%
    12:00 +35°C° 0 mm 4 mps 677 mmHg 12%
    13:00 +36°C° 0 mm 3 mps 677 mmHg 11%
    14:00 +37°C° 0 mm 2 mps 676 mmHg 10%
    15:00 +36°C° 0 mm 2 mps 676 mmHg 11%
    16:00 +36°C° 0 mm 2 mps 675 mmHg 11%
    17:00 +34°C° 0 mm 1 mps 675 mmHg 12%
    18:00 +32°C° 0 mm 2 mps 675 mmHg 14%
    19:00 +31°C° 0 mm 2 mps 675 mmHg 16%
    20:00 +29°C° 0 mm 2 mps 675 mmHg 19%
    21:00 +28°C° 0 mm 2 mps 675 mmHg 20%
    22:00 +28°C° 0 mm 2 mps 676 mmHg 21%
    23:00 +27°C° 0 mm 2 mps 676 mmHg 22%

    24 August, Friday

    Time Temperature Precipitation Wind Pressure Humidity
    00:00 +26°C° 0 mm 3 mps 675 mmHg 21%
    01:00 +26°C° 0 mm 3 mps 675 mmHg 21%
    02:00 +25°C° 0 mm 3 mps 675 mmHg 21%
    03:00 +25°C° 0 mm 4 mps 675 mmHg 21%
    04:00 +25°C° 0 mm 5 mps 675 mmHg 21%
    05:00 +25°C° 0 mm 5 mps 675 mmHg 21%
    06:00 +25°C° 0 mm 5 mps 676 mmHg 23%
    07:00 +25°C° 0 mm 5 mps 676 mmHg 24%
    08:00 +26°C° 0 mm 5 mps 677 mmHg 26%
    09:00 +26°C° 0 mm 6 mps 677 mmHg 30%
    10:00 +26°C° 0 mm 6 mps 677 mmHg 34%
    11:00 +26°C° 0 mm 7 mps 678 mmHg 38%
    12:00 +26°C° 0 mm 7 mps 677 mmHg 40%
    13:00 +26°C° 0 mm 7 mps 677 mmHg 42%
    14:00 +26°C° 0 mm 7 mps 676 mmHg 44%
    15:00 +26°C° 0 mm 8 mps 676 mmHg 46%
    16:00 +26°C° 0 mm 8 mps 676 mmHg 48%
    17:00 +24°C° 0 mm 9 mps 676 mmHg 50%
    18:00 +23°C° 0 mm 9 mps 677 mmHg 56%
    19:00 +22°C° 0 mm 9 mps 677 mmHg 61%
    20:00 +21°C° 0 mm 9 mps 677 mmHg 66%
    21:00 +20°C° 0 mm 8 mps 678 mmHg 67%
    22:00 +20°C° 0 mm 8 mps 678 mmHg 68%
    23:00 +20°C° 0 mm 7 mps 678 mmHg 69%
    Show more